Location: Asbacherhof
(48.8543°N, 10.7903°E)
Time: 23:50:12
(UTC+00:00)

CRYOSAT 2 - Pass Details

Date: 26 May 2022
Orbit: 716 x 722 km, 92.0° (Epoch: 26 June)

Event Time Altitude Azimuth Distance (km) Brightness Sun altitude
Exits shadow 01:37:30 15° 185° (S) 1,880 6.0 -13.1°
Maximum altitude 01:41:32 69° 267° (W) 777 4.4 -12.7°
Drops below altitude 10° 01:46:26 10° 351° (N) 2,222 7.6 -12.2°
Sets 01:48:45 0° 354° (N) 3,149 8.5 -12.0°
